Location: Ceske Budejovice
(48.9830°N, 14.4670°E)
Time: 18:57:55
(UTC+02:00)

ISS - Pass Details

Date: 24 March 2019
Orbit: 408 x 410 km, 51.6° (Epoch: 22 April)

Event Time Altitude Azimuth Distance (km) Brightness Sun altitude
Rises 21:03:54 0° 265° (W) 2,334 0.7 -25.7°
Reaches altitude 10° 21:06:01 10° 270° (W) 1,473 -0.3 -26.0°
Enters shadow 21:07:22 22° 277° (W) 950 -1.4 -26.2°
